Notices

What's New in latest Release from April 7th, 2021:

- Updated Glossary, including Speed of Maximum Gust, and Total Hourly Precipitation

- Updated national and regional climate services offices contacts and prices information

- Addition of station inventory lists for 1981-2010, 1971-2000, and 1961-1990 Normals.

If you haven't already, please take our survey and provide feedback about our website: https://eccc.sondage-survey.ca/f/LanguageSelection.aspx?s=442ca660-fcf1-47c0-95a9-59707d6fd709

Hourly Data Report for March 04, 2021

NANAIMO A
BRITISH COLUMBIA
Current Station Operator: NAVCAN

49°03'16.000" N
123°52'12.000" W
28.00 m
1025365
YCD

Download Data

Hourly Data (March 2021)
Hourly Data Report for March 4, 2021
TIME
LST
Temp Definition
°C
Dew Point Definition
°C
Rel Hum Definition
%
Precip. Amount Definition
mm

Wind Dir Definition
10's deg

Wind Spd Definition
km/h
Visibility Definition
km
Stn Press Definition
kPa
Hmdx Definition


Wind Chill Definition


Weather Definition


00:00 0.5 -0.2 95 LegendMM 25 4 LegendMM 100.71     LegendNANA
01:00 0.2 -0.3 96 LegendMM 17 4 LegendMM 100.71     LegendNANA
02:00 0.2 -0.3 96 LegendMM 12 1 LegendMM 100.73     LegendNANA
03:00 -0.1 -0.8 95 LegendMM 32 1 LegendMM 100.73   0 LegendNANA
04:00 -0.2 -0.4 98 LegendMM 21 4 LegendMM 100.73   -1 LegendNANA
05:00 -0.4 -0.7 98 LegendMM 25 3 LegendMM 100.72   -1 LegendNANA
06:00 -0.7 -1.1 97 LegendMM 9 3 LegendMM 100.76   -2 LegendNANA
07:00 -0.5 -0.7 98 LegendMM 9 3 LegendMM 100.77   -1 LegendNANA
08:00 0.2 -0.2 97 LegendMM 24 2 LegendMM 100.81     LegendNANA
09:00 3.1 2.1 93 LegendMM 30 1 LegendMM 100.88     LegendNANA
10:00 6.4 3.1 80 LegendMM 35 4 LegendMM 100.93     LegendNANA
11:00 8.8 4.7 75 LegendMM 13 10 LegendMM 100.99     LegendNANA
12:00 8.0 3.5 73 LegendMM 12 13 LegendMM 100.98     LegendNANA
13:00 7.8 4.0 77 LegendMM 11 15 LegendMM 100.99     LegendNANA
14:00 7.4 5.3 87 LegendMM 10 15 LegendMM 101.03     LegendNANA
15:00 7.2 6.1 93 LegendMM 10 14 LegendMM 101.10     LegendNANA
16:00 7.3 6.4 94 LegendMM 11 13 LegendMM 101.15     LegendNANA
17:00 7.4 6.2 92 LegendMM 11 14 LegendMM 101.19     LegendNANA
18:00 7.4 5.2 86 LegendMM 10 16 LegendMM 101.22     LegendNANA
19:00 8.1 4.7 79 LegendMM 11 16 LegendMM 101.25     LegendNANA
20:00 8.6 4.1 73 LegendMM 14 12 LegendMM 101.25     LegendNANA
21:00 7.7 5.5 86 LegendMM 12 13 LegendMM 101.24     LegendNANA
22:00 7.9 5.8 87 LegendMM 14 21 LegendMM 101.18     LegendNANA
23:00 7.2 7.0 98 LegendMM 13 4 LegendMM 101.19     LegendNANA

Notes on Data Quality.

Legend

  • E = Estimated
  • M = Missing
  • NA = Not Available*
  • [empty] = Indicates an unobserved value
Date modified: